Tracking 31027 objects as of 19-Jul-2025
HD Live streaming from Space Station
objects crossing your sky now

FENGYUN 1C DEB

Track FENGYUN 1C DEB now!
10-day predictions


NORAD ID: 31829
Int'l Code: 1999-025CHT
Perigee: 817.7 km
Apogee: 1,064.5 km
Inclination: 98.8 °
Period: 103.7 minutes
Semi major axis: 7312 km
RCS: 0.0129 m2 (small)
Launch date: May 10, 1999
Source: People's Republic of China (PRC)
Launch site: Taiyaun Space Center, China (TSC)

Note: This is SATELLITE DEBRIS
Your satellite tracking list
LANDSAT 5
Track 1 satellite(s)




NASA's NSSDC Master Catalog

Two Line Element Set (TLE):
1 31829U 99025CHT 25199.76298279  .00000380  00000-0  31338-3 0  9996
2 31829  98.8305  17.2165 0168797 204.8395 173.2765 13.88483734921067
Source of the keplerian elements: AFSPC